Regional Weather Roundup
Issued by NWS

Home | Current Version | Previous Version | Graphics & Text | Print | Product List | Glossary On
Versions: 1 2 3 4 5 6 7 8 9 10 11 12 13 14 15 16 17 18 19 20 21 22 23 24 25 26 27 28 29 30 31 32 33 34 35 36 37 38 39 40 41 42 43 44 45 46 47 48 49 50
000
ASUS43 KMPX 191210
RWRMN
WEATHER ROUNDUP FOR MINNESOTA
NATIONAL WEATHER SERVICE TWIN CITIES/CHANHASSEN MN
700 AM CDT SAT APR 19 2014


NOTE: "FAIR" INDICATES FEW OR NO CLOUDS BELOW 12,000 FEET WITH NO
SIGNIFICANT WEATHER AND/OR OBSTRUCTIONS TO VISIBILITY. N/A MEANS
CURRENT SKY AND/OR WEATHER CONDITIONS ARE NOT AVAILABLE.

MNZ060>063-068>070-191300-
   Twin Cities Metro

CITY           SKY/WX    TMP DP  RH WIND       PRES   REMARKS
TWIN CITIES    MOCLDY    43  33  68 SE18G28   30.13R
6HR MIN TEMP:  42; 6HR MAX TEMP:  46;

ST PAUL        PTCLDY    43  31  62 SE25G37   30.14S
CRYSTAL        PTCLDY    43  31  62 SE17G31   30.12R
BLAINE         PTCLDY    45  34  65 SE17G29   30.12S
EDEN PRAIRIE   PTCLDY    44  34  67 SE16G29   30.10R
6HR MIN TEMP:  44; 6HR MAX TEMP:  46;

LAKEVILLE      PTCLDY    39  32  75 SE21G28   30.12F
SOUTH ST PAUL  PTCLDY    45  32  60 SE18G26   30.13S
LAKE ELMO      FAIR      43  32  65 SE13G21   30.16S
$$
MNZ001>005-007-008-013>017-022>024-027-028-191300-
   Northwest Minnesota

CITY           SKY/WX    TMP DP  RH WIND       PRES   REMARKS
BEMIDJI        CLOUDY    39  32  75 SE17G25   29.86S
HALLOCK        CLOUDY    39  34  81 SE14      29.71F
ROSEAU         CLOUDY    37  30  75 SE16G26   29.78F
WARROAD        CLOUDY    36  30  80 SE18G25   29.82F
THIEF RVR FALL CLOUDY    45  34  65 SE20      29.76S
CROOKSTON      MOCLDY    46  36  66 S18G25    29.76R
FOSSTON        MOCLDY    45  36  70 S23G32    29.78S
DETROIT LAKES  CLOUDY    43  37  81 S16G24    29.83S
MOORHEAD       MOCLDY    48  41  76 S16G35    29.79R
PARK RAPIDS    LGT RAIN  40  36  86 SE25      29.87F
$$
MNZ006-009>011-018-025>026-191300-
   North Central Minnesota

CITY           SKY/WX    TMP DP  RH WIND       PRES   REMARKS
BAUDETTE       CLOUDY    35  30  82 SE18G29   29.88F WCI  24
FLAG ISLAND    CLOUDY    36  30  80 SE16G28   29.86F
INTL FALLS     CLOUDY    34  30  85 SE17      29.99F WCI  23
6HR MIN TEMP:  32; 6HR MAX TEMP:  37; 6HR PCP:  0.23;

WASKISH        CLOUDY    37  32  81 SE14G22   29.87S
BIG FORK       LGT RAIN  36  30  80 SE15G24   29.95F
LONGVILLE      RAIN      37  34  87 SE14G23   29.94S
GRAND RAPIDS   CLOUDY    34  28  80 SE13G20   29.99F WCI  25
CRANE LAKE     CLOUDY    30  28  93 SE6       30.07F WCI  24
ORR            CLOUDY    32  28  86 SE13G22   29.99F WCI  22
COOK           MIX PCPN  34  30  86 E14G28    30.04F WCI  24
$$
MNZ012-019>021-037-191300-
   Northeast Minnesota

CITY           SKY/WX    TMP DP  RH WIND       PRES   REMARKS
DULUTH         LGT RAIN  34  26  72 E18       30.12R WCI  23
6HR MIN TEMP:  31; 6HR MAX TEMP:  34; 6HR PCP: TRACE;

ELY            SNOW      30  28  93 SE20G29   30.13F VSB 1/2 WCI  18
HIBBING        LGT RAIN  34  30  85 SE20      30.06R WCI  23
EVELETH        MIX PCPN  34  30  86 SE13G24   30.10R WCI  25
DULUTH HARBOR  MIX PCPN  34  30  86 NE12      30.18R WCI  25
TWO HARBORS    LGT SNOW  32  25  74 E13       30.17S WCI  22
SILVER BAY     LGT RAIN  30  28  93 NE12G17   30.21F WCI  21
GRAND MARAIS     N/A     33  28  81 NE13G22   30.33S WCI  24
G MARAIS ARPRT CLOUDY    27  21  80 E12G17    30.27R WCI  16
$$
MNZ029>031-032-039>041-046>048-054>057-064-191300-
   West Central Minnesota

CITY           SKY/WX    TMP DP  RH WIND       PRES   REMARKS
FERGUS FALLS   LGT RAIN  46  37  71 S24G31    29.81S
WHEATON        DRIZZLE   50  43  76 SE20      29.84R
MORRIS         CLOUDY    48  39  71 S22G29    29.87R
ALEXANDRIA     CLOUDY    47  36  65 S21       29.92R
ELBOW LAKE     CLOUDY    46  38  71 S24G31    29.85R
WADENA         LGT RAIN  43  36  75 SE21G28   29.89R
GLENWOOD       CLOUDY    46  37  71 SE24G31   29.93R
APPLETON       CLOUDY    52  39  62 S17G25    29.87R
BENSON         CLOUDY    48  37  66 S18G29    29.90R
ORTONVILLE     CLOUDY    52  39  62 S9        29.85R
MADISON        CLOUDY    55  43  62 S17G26    29.86R
WILLMAR        FAIR      46  36  66 SE21G28   29.96R
$$
MNZ033>034-036-042>043-049>051-058-059-191300-
   Central Minnesota

CITY           SKY/WX    TMP DP  RH WIND       PRES   REMARKS
ST CLOUD       MOCLDY    43  31  62 SE18G24   30.01F
6HR MIN TEMP:  42; 6HR MAX TEMP:  45; 6HR PCP: TRACE;

SAUK CENTRE    CLOUDY    45  34  67 SE24G36   29.94R
PAYNESVILLE    CLOUDY    44  32  63 SE21G31   29.97S
AITKIN         LGT RAIN  43  34  70 SE18G30   29.98R
PINE RIVER     LGT RAIN  39  36  87 SE18G24   29.97F
BRAINERD       LGT RAIN  47  32  56 SE14G23   29.98R
STAPLES        DRIZZLE   39  36  87 S17G23    29.93R
LONG PRAIRIE   FAIR      43  34  70 SE16G29   29.95R
LITTLE FALLS   CLOUDY    41  32  70 SE18G28   29.96F
LITCHFIELD     MOCLDY    46  34  61 SE14G28   30.01S
BUFFALO        PTCLDY    45  33  62 SE15G23   30.06F
MAPLE LAKE     MOCLDY    45  35  67 SE16G22   30.05S
$$
MNZ037-044-045-052-053-191300-
   East Central Minnesota

CITY           SKY/WX    TMP DP  RH WIND       PRES   REMARKS
PRINCETON      PTCLDY    45  30  57 SE17G25   30.07S
MORA           CLOUDY    37  28  70 SE13G24   30.10F
CAMBRIDGE      MOCLDY    43  30  61 SE12G22   30.08F
RUSH CITY      CLOUDY    40  30  67 SE14G25   30.12F
MOOSE LAKE     CLOUDY    39  30  70 S6        30.07S
HINCKLEY       CLOUDY    39  30  70 SE13G24   30.11F
CLOQUET        MIX PCPN  34  28  80 SE9G16    30.11R WCI  26
MCGREGOR       CLOUDY    39  32  75 SE18G25   30.04S
$$
MNZ071>073-080-081-089-090-097-098-191300-
   Southwest Minnesota

CITY           SKY/WX    TMP DP  RH WIND       PRES   REMARKS
MONTEVIDEO     CLOUDY    50  41  71 S18G28    29.90R
GRANITE FALLS  CLOUDY    49  40  71 SE28G33   29.92F
CANBY          MOCLDY    55  41  59 S22G33    29.85R
MARSHALL       CLOUDY    52  39  62 S26G35    29.89S
REDWOOD FALLS  MOCLDY    48  36  63 S28       29.97R
OLIVIA         CLOUDY    46  36  66 S22G30    29.96S
PIPESTONE      PTCLDY    50  39  66 S25       29.92F
WINDOM         PTCLDY    46  37  71 SE23G29   30.00F
WORTHINGTON    PTCLDY    46  36  66 S16       30.04R
JACKSON        PTCLDY    46  36  66 S16       30.05S
TRACY          MOCLDY    50  40  69 S22G29    29.94S
SLAYTON        PTCLDY    47  40  74 S21G29    29.98R
$$
MNZ065>067-074>077-082>085-091>093-191300-
   South Central Minnesota

CITY           SKY/WX    TMP DP  RH WIND       PRES   REMARKS
MANKATO        PTCLDY    43  34  70 SE25G33   30.10S
NEW ULM        PTCLDY    45  34  65 SE26G35   30.00F
ST JAMES       PTCLDY    45  34  65 SE20G25   30.06S
FAIRMONT       FAIR      43  30  61 SE22      30.10F
GLENCOE        PTCLDY    46  33  60 SE18G24   30.07R
FARIBAULT      CLEAR     43  30  61 SE21G35   30.14F
OWATONNA       PTCLDY    39  34  81 SE25G35   30.15S
WASECA         CLEAR     41  34  75 SE25G32   30.15R
ALBERT LEA     PTCLDY    39  34  81 SE18G25   30.17F HAZE
$$
MNZ078>079-086>088-094>096-191300-
   Southeast Minnesota

CITY           SKY/WX    TMP DP  RH WIND       PRES   REMARKS
ROCHESTER      PTCLDY    36  28  73 SE22G29   30.21F
6HR MIN TEMP:  36; 6HR MAX TEMP:  42;

RED WING       CLEAR     41  32  70 SE21      30.18F
STANTON        CLEAR     42  32  66 SE22G33   30.13S
DODGE CENTER   PTCLDY    39  30  70 SE23G31   30.18F
WINONA         CLEAR     37  28  70 SE16      30.29F
AUSTIN         PTCLDY    37  32  81 SE15G21   30.20F
PRESTON        CLEAR     36  28  73 SE12G20   30.26F
$$
ABBREVIATIONS USED IN REMARKS
   TC - TEMPERATURES IN CELSIUS
  WCI - WIND CHILL INDEX
   HX - HEAT INDEX
  VSB - VISIBILITY
$$



USA.gov is the U.S. government's official web portal to all federal, state and local government web resources and services.